Location: Vista Encantada
(35.1109°N, 106.5681°W)
Time: 17:06:47
(UTC+00:00)

X-37B - Pass Details

Date: 24 September 2021
Orbit: 385 x 389 km, 45.0° (Epoch: 13 October)

Event Time Altitude Azimuth Distance (km) Brightness Sun altitude
Exits shadow 10:45:46 17° 43° (NE) 1,051 3.4 -27.0°
Drops below altitude 10° 10:46:42 10° 49° (NE) 1,412 4.3 -26.8°
Sets 10:48:49 0° 55° (NE) 2,269 5.7 -26.4°
